Showing default

ION SCV-018, 64575

Orbit data source: Space-Track

ION SCV-018, 64575 is a payload satellite owned by D-ORBIT (IT) in SSO that was launched on Mon, 23 Jun 2025 UTC via an FALCON 9 launch vehicle from the Air Force Western Test Range (AFWTR). Payload-class satellites include a variety of spacecraft equipped with specific instruments for various scientific and technological missions. These include communications satellites like Starlink; space stations such as the ISS; scientific satellites like the Hubble; Earth observation satellites from companies like Planet Labs, Umbra, and HawkEye 360; GPS; miniature CubeSats for education and research; and military/defense satellites.

Loading next visibility...
Identifier
64575, 2025-135AZ
Orbit
SSO
Country
Flag of ITIT
Related business
Manufacturer
D-ORBIT
Mission
Operational Commercial Technology
Bus & Motor
ION-SC, PM200
Mass
220 kg wet, 150 kg dry
Launch date (UTC)
2025-06-23 (11 months ago)
Launch vehicle
FALCON 9
Launch site
Air Force Western Test Range (AFWTR)
Object type
Payload
Rocket body
Debris
Shape & HBR
Box, 0.2 m
Radar Cross Section
0.240 m², Large (>1 m²)

Expand to show TLE details & history
Last TLE update: 12 hours ago

TLE from 12 hours ago
0 ION SCV-018
1 64575U 25135AZ  26133.07349510  .00000785  00000-0  77745-4 0  9991
2 64575  97.7736 248.4764 0013783  54.1428 306.1070 14.94587236 48681
Epoch: 2026-05-13T01:45Z
TLE epoch observation values (Epoch: 2026-05-13T01:45:49.976Z)
Latitude
-0.00005°
Longitude
-8.82058°
Altitude
581.052 km
Speed
7.573 km/s
True Right ascension
16h 33m 54s
True Declination
0° 00' 00"
Sunlit
Object was in full shadow at epoch
Visualization orbit readout
Latitude
Unknown
Longitude
Unknown
Altitude
Unknown
Speed
Unknown
Apparent Right ascension
Unknown
Apparent Declination
Unknown
Sunlit
N/A
Visualization observer readout
Local Sidereal Time
22:06:32
Azimuth
Unknown
Elevation
Unknown
Doppler factor
Unknown
Orbital elements
Apogee altitude
590.261 km
Perigee altitude
571.079 km
Semi-major axis
6,958.807 km
Eccentricity
0.00138
Inclination
97.7736°
RAAN
248.4764°
Arg. of periapsis
54.1428°
True anomaly
305.97927°
Mean anomaly
306.107°
Eccentric anomaly
306.04315°
Mean motion
3.73888 °/min
Orbital period
96.29 mins
BSTAR
0.000077745
Loading maneuver chart data...
Computing Atmospheric mass density...
Loading historical data...
Loading historical data...
Loading historical data...
Loading historical data...
Loading historical data...
Loading historical data...
Loading historical data...

Documentation

Showing up to 5 results
|